Regional Weather Roundup
Issued by NWS

Home | Current Version | Previous Version | Graphics & Text | Print | Product List | Glossary On
Versions: 1 2 3 4 5 6 7 8 9 10 11 12 13 14 15 16 17 18 19 20 21 22 23 24 25 26 27 28 29 30 31 32 33 34 35 36 37 38 39 40 41 42 43 44 45 46 47 48 49 50
000
ASUS43 KLOT 261608
RWRIL

ILLINOIS REGIONAL WEATHER ROUNDUP
NATIONAL WEATHER SERVICE CHICAGO/ROMEOVILLE IL
1100 AM CDT TUE JUL 26 2016

NOTE: "FAIR" INDICATES FEW OR NO CLOUDS BELOW 12,000 FEET WITH NO
SIGNIFICANT WEATHER AND/OR OBSTRUCTIONS TO VISIBILITY.

* THESE STATIONS ARE NOT UNDER NWS QUALITY CONTROL. THEY ALSO MAY NOT
  REPORT WEATHER SUCH AS PRECIPITATION OR FOG.

ILZ001-002-007-009-015-016-024-261700-
NORTHWEST ILLINOIS

CITY           SKY/WX    TMP DP  RH WIND       PRES   REMARKS
MOLINE         SUNNY     83  66  56 E3        30.07S HX  85
STERLING*      SUNNY     82  69  64 VRB5      30.08R HX  85
SAVANNA*       SUNNY     82  65  55 E6        30.08R HX  84
$$

ILZ003-004-008-010-011-017-018-261700-
NORTH CENTRAL ILLINOIS

CITY           SKY/WX    TMP DP  RH WIND       PRES   REMARKS
ROCKFORD       MOSUNNY   83  61  47 E6        30.10R HX  83
FREEPORT*      SUNNY     80  64  56 SE3       30.11S HX  82
ROCHELLE*      SUNNY     82  64  55 NE5       30.09S HX  83
DE KALB*       SUNNY     82  67  60 E5        30.09S HX  84
$$

ILZ005-006-012>014-019>023-261700-
NORTHEAST ILLINOIS

CITY           SKY/WX    TMP DP  RH WIND       PRES   REMARKS
CHICAGO-OHARE  MOSUNNY   82  61  48 S5        30.06S HX  83
CHICAGO-MIDWAY PTSUNNY   84  64  50 E6        30.06S HX  85
AURORA         SUNNY     83  66  56 S5        30.08R HX  85
LANSING*       MOSUNNY   82  63  52 SE5       30.07F HX  83
JOLIET*        SUNNY     83  68  59 S3        30.07S HX  86
WAUKEGAN       SUNNY     82  62  50 E6        30.07R HX  83
DUPAGE AIRPORT MOSUNNY   83  64  52 CALM      30.07S HX  84
KANKAKEE*      MOSUNNY   81  68  64 SE5       30.08S HX  84
WHEELING       SUNNY     83  61  47 NE5       30.08R HX  83
MORRIS*        MOSUNNY   81  67  61 CALM      30.06S HX  84
ROMEOVILLE*    SUNNY     82  64  54 SE5       30.07S HX  83
NORTHERLY ISL    N/A     78  69  73 E2          N/A  HX  80
$$

LMZ740>746-261700-
SOUTHERN LAKE MICHIGAN

STATION/POSITION SKY/WX   TEMP    WIND        PRES    VSBY  WAVE
                          AIR SEA DIR/SP/G                  HT/PER
                          (F)     (DEG/KT/KT) (MB)    (MI)  (FT/S)
SOUTHERN BUOY              74 75   CALM  /  2 1017.8R         0
WILMETTE HARBOR            73 71   CALM  /  2   N/A           0
HARRISON CRIB              76      50/  2/  2   N/A
BURNHAM HARBOR             78      70/  3/  3   N/A
CALUMET HARBOR             77      50/  4/  5 1017.7R
BURNS HARBOR               75     360/  4/  6 1018.6S
MICHIGAN CITY              75     360/  7/  8   N/A
MICHIGAN CITY 6N           76 76   30/  6/  8   N/A           0
ST. JOSEPH                 76 78  320/  6/  6 1018.1S         0
$$

ILZ025>027-034>036-040-047-049-050-058-095>099-261700-
WEST-CENTRAL ILLINOIS

CITY           SKY/WX    TMP DP  RH WIND       PRES   REMARKS
QUINCY         MOSUNNY   82  66  58 E5        30.07S HX  84
GALESBURG*     MOSUNNY   82  66  57 SE5       30.08S HX  84
MACOMB*        PTSUNNY   81  69  66 NE3       30.09S HX  84
JACKSONVILLE*  SUNNY     82  71  70 E5        30.05F HX  86
PITTSFIELD*    MOSUNNY   81  72  74 E3        30.07F HX  86
$$

ILZ028>032-037-038-041>044-048-051>054-059>061-261700-
CENTRAL ILLINOIS

CITY           SKY/WX    TMP DP  RH WIND       PRES   REMARKS
PONTIAC        MOSUNNY   83  75  78 CALM      30.07S HX  90
BLOOMINGTON    MOSUNNY   82  70  66 SE7       30.08S HX  86
DECATUR        SUNNY     82  65  56 E9        30.06S HX  84
PEORIA         MOSUNNY   83  67  58 CALM      30.05F HX  85
LACON*         SUNNY     82  68  62 CALM      30.05S HX  85
LINCOLN*       MOSUNNY   84  73  68 SE3       30.05S HX  90
SPRINGFIELD    SUNNY     85  68  56 E6        30.05F HX  88
TAYLORVILLE    SUNNY     82  70  68 MISG      30.05S HX  86
$$

ILZ033-039-045-046-055>057-062-063-261700-
EAST-CENTRAL ILLINOIS

CITY           SKY/WX    TMP DP  RH WIND       PRES   REMARKS
CHAMPAIGN      MOSUNNY   79  69  71 SE9       30.07S HX  81
RANTOUL*       CLOUDY    82  66  57 SE5       30.07S HX  85
MATTOON        CLOUDY    72  66  81 E8        30.06S
PARIS*         CLOUDY    74  68  82 E3        30.07S
$$

ILZ079-100>102-261700-
SOUTHWEST ILLINOIS

CITY           SKY/WX    TMP DP  RH WIND       PRES   REMARKS
ALTON          PTSUNNY   82  73  74 NE7       30.04S HX  88
BELLEVILLE     MOSUNNY   82  79  91 VRB2      30.02S HX  93
CAHOKIA*       PTSUNNY   86  75  69 CALM      30.03S HX  95
SPARTA*        CLOUDY    82  76  81 CALM      30.04S HX  90
$$

ILZ064>066-069>071-074>076-080>082-084>086-088>090-092>094-261700-
SOUTH-CENTRAL ILLINOIS

CITY           SKY/WX    TMP DP  RH WIND       PRES   REMARKS
CARBONDALE     PTSUNNY   85  75  72 NW5       30.02F HX  93
CAIRO*         SUNNY     84  78  81 W3        30.02S HX  95
EFFINGHAM*     CLOUDY    76  75  94 NE3       30.07R
MARION         PTSUNNY   82  77  83 N6        30.03S HX  91
MT. VERNON     MOSUNNY   84  73  70 CALM      30.02F HX  91
CENTRALIA*     CLOUDY    83  75  78 N3        30.03S HX  90
SALEM*         CLOUDY    80  75  83 NE5       30.04S HX  85
METROPOLIS*    SUNNY     87  77  72 CALM      30.03R HX  97
$$

ILZ067-068-072-073-078-083-087-091-261700-
SOUTHEAST ILLINOIS

CITY           SKY/WX    TMP DP  RH WIND       PRES   REMARKS
LAWRENCEVILLE  CLOUDY    81  73  76 VRB5      30.04R HX  86
FLORA*         PTSUNNY   82  74  77 NE6       30.04S HX  88
FAIRFIELD*     CLOUDY    81  75  81 S3        30.02F HX  87
HARRISBURG*    CLOUDY    82  78  87 CALM      30.02F HX  90
ROBINSON*      CLOUDY    74  71  91 NE5       30.06R
CARMI*         CLOUDY    79  75  89 CALM      30.02F HX  82
$$

ABBREVIATIONS USED IN REMARKS
   TC - TEMPERATURE IN CELSIUS
  WCI - WIND CHILL INDEX
   HX - HEAT INDEX
  VSB - VISIBILITY
$$





USA.gov is the U.S. government's official web portal to all federal, state and local government web resources and services.